Content
SEND FEEDBACK

Daily
Averages
Monthly
Summary
United States of America

ST. LOUIS, MISSOURI


Home > North America > United States > Missouri
Elevation: 163 meters     Latitude: 38 45N     Longitude: 090 22W

WEATHER
 
SELECT A DAY
Number of Records: 201,172;   Date Range: 1/1/95 - 12/16/14
 
SHARE

PRINT THIS DATA

[ ← Previous Day ]
WEATHER ALMANAC - 4 MARCH, 2013
[ Next Day → ]
[ °F ]   °C
Weather ElementAverageHighLow
Temperature6.2 °C11.7 °C (1:54 pm)2.2 °C (1:54 am)
Dewpoint-1.2 °C2.2 °C (4:54 pm)-4.4 °C (5:54 am)
Humidity60.5 %79 % (8:54 pm)43 % (12:54 pm)
Barometer1011.2 hPa1016.3 hPa (1:54 am)1007.5 hPa (3:54 pm)
Wind Speed12.1 km/h20.4 km/h (12:54 pm)
Wind Gust37 km/h (8:54 am)
Weather ElementAverage
Visibility16.1 km
Wind DirectionESE (105.2 °)

Weather ElementTotal
Precipitation---
Heating Degree Days11.4 (Base 18.3)
Averaged from 23 records on 4 March, 2013
WEATHER CONDITIONS BREAKOUT
WIND DIRECTION BREAKOUT
WEATHER BY HOUR - 4 MARCH, 2013
[ °F ]   °C
Local TimeTemperatureDewpointHumidityBarometerVisibilityWind DirectionWind SpeedGust SpeedPrecipitationEventsConditions
1:54 AM2.2 °C-2.8 °C70 %1016.3 hPa16.1 kmESE (110°)14.8 km/h0 mmOvercast
2:54 AM2.2 °C-3.3 °C67 %1015.6 hPa16.1 kmEast (100°)13 km/hOvercast
3:54 AM2.2 °C-3.3 °C67 %1014.9 hPa16.1 kmESE (120°)11.1 km/hPartly Cloudy
4:54 AM2.2 °C-3.9 °C64 %1014.6 hPa16.1 kmESE (110°)13 km/hClear
5:54 AM2.2 °C-4.4 °C62 %1013.9 hPa16.1 kmESE (110°)16.7 km/hMostly Cloudy
6:54 AM2.2 °C-4.4 °C62 %1013.2 hPa16.1 kmEast (100°)16.7 km/h27.8 km/hClear
7:54 AM2.8 °C-4.4 °C59 %1013.2 hPa16.1 kmESE (110°)18.5 km/h29.6 km/hMostly Cloudy
8:54 AM3.9 °C-4.4 °C55 %1012.5 hPa16.1 kmSE (130°)18.5 km/h37 km/hMostly Cloudy
9:54 AM5 °C-4.4 °C51 %1011.9 hPa16.1 kmSE (140°)16.7 km/h31.5 km/hClear
10:54 AM6.7 °C-3.3 °C49 %1010.8 hPa16.1 kmESE (110°)14.8 km/h29.6 km/hClear
11:54 AM9.4 °C-2.2 °C44 %1010.2 hPa16.1 kmSSE (160°)16.7 km/h25.9 km/hMostly Cloudy
12:54 PM10.6 °C-1.7 °C43 %1008.8 hPa16.1 kmESE (120°)20.4 km/hClear
1:54 PM11.7 °C-0.6 °C43 %1007.8 hPa16.1 kmSSE (160°)13 km/hOvercast
2:54 PM11.7 °C0.6 °C47 %1007.8 hPa16.1 kmSE (130°)14.8 km/hMostly Cloudy
3:54 PM11.7 °C0.6 °C47 %1007.5 hPa16.1 kmESE (120°)11.1 km/h27.8 km/hMostly Cloudy
4:54 PM11.1 °C2.2 °C54 %1008.1 hPa16.1 kmSE (130°)11.1 km/hOvercast
5:54 PM10 °C2.2 °C59 %1008.8 hPa16.1 kmESE (120°)7.4 km/hClear
6:54 PM8.9 °C2.2 °C63 %1009.5 hPa16.1 kmESE (110°)7.4 km/hMostly Cloudy
7:54 PM5.6 °C1.7 °C76 %1009.5 hPa16.1 kmEast (80°)5.6 km/hMostly Cloudy
8:54 PM5 °C1.7 °C79 %1009.8 hPa16.1 kmCalmPartly Cloudy
9:54 PM6.1 °C2.2 °C76 %1009.8 hPa16.1 kmENE (70°)9.3 km/hClear
10:54 PM5.6 °C1.7 °C76 %1010.2 hPa16.1 kmEast (80°)5.6 km/hScattered Clouds
11:54 PM4.4 °C1.1 °C79 %1009.5 hPa16.1 kmCalmClear
Hourly data recorded from KSUS, located 0 kilometers away from St. Louis, Missouri







STORIES FROM OUR PARTNERS